Regional Weather Roundup
Issued by NWS Sterling, VA

Home | Current Version | Previous Version | Text Only | Print | Product List | Glossary Off
Versions: 1 2 3 4 5 6 7 8 9 10 11 12 13 14 15 16 17 18 19 20 21 22 23 24 25 26 27 28 29 30 31 32 33 34 35 36 37 38 39 40 41 42 43 44 45 46 47 48 49 50

000
ASUS41 KLWX 050510
RWRLWX

REGIONAL WEATHER ROUNDUP
NATIONAL WEATHER SERVICE BALTIMORE MD/WASHINGTON DC
100 AM EDT WED AUG 05 2015

Note: "FAIR" indicates few or no clouds below 12,000 feet
with no significant weather and/or obstructions to visibility.
 TC=TEMPERATURE CELSIUS

 * =Non NWS site. Station does not report precipitation (e.g. rain,
    snow, etc.), thunder, or fog.

DCZ001-MDZ009-015-VAZ040>042-051-053>054-050600-
WASHINGTON METRO

CITY           SKY/WX    TMP DP  RH WIND       PRES   REMARKS
WASHINGTON NAT PTCLDY    78  70  76 NW7       29.94R
DULLES         PTCLDY    73  70  90 NW7       29.95R
ANDREWS AFB    CLEAR     73  71  92 N3        29.93R
FT BELVOIR     CLEAR     72  69  90 CALM      29.94R
QUANTICO       CLEAR     73  67  81 NW7       29.94R
COLLEGE PARK*  CLEAR     72  72 100 CALM      29.93S
LEESBURG*      CLOUDY    72  72 100 W8        29.96S
MANASSAS*      CLEAR     68  68 100 CALM      29.95R
GAITHERSBURG*  PTCLDY    70  66  88 CALM      30.00R

$$

MDZ006>007-011-014-050600-
BALTIMORE METRO

CITY           SKY/WX    TMP DP  RH WIND       PRES   REMARKS
BWI AIRPORT    MOCLDY    71  70  96 CALM      29.93R
MD SCIENCE CTR   N/A     77  70  79 MISG      29.94R
MARTIN STATE   CLEAR     72  72 100 CALM      29.95R
ANNAPOLIS      CLEAR     77  72  84 NW3       29.93R
FORT MEADE*    CLEAR     68  66  94 CALM      29.96R

$$

MDZ012-015-019>023-050600-
MARYLAND EASTERN SHORE

CITY           SKY/WX    TMP DP  RH WIND       PRES   REMARKS
OCEAN CITY     CLOUDY    76  66  71 NW7       29.93R
SALISBURY      TSTM      71  69  93 N10       29.95R FOG
BAY BRIDGE AP*   N/A     73  72  94 E3        29.93R
CAMBRIDGE*     MOCLDY    77  72  83 CALM      29.91R
EASTON*        MOCLDY    73  73 100 E5        29.96R

$$

MDZ017>025-050600-
SOUTHERN MARYLAND

CITY           SKY/WX    TMP DP  RH WIND       PRES   REMARKS
PATUXENT RIVER MOCLDY    78  71  79 W6        29.91R
ST INIGOES     NOT AVBL
LEONARDTOWN*   PTCLDY    73  68  83 CALM      29.94R

$$

MDZ003>005-050600-
NORTH CENTRAL MARYLAND

CITY           SKY/WX    TMP DP  RH WIND       PRES   REMARKS
FREDERICK*     PTCLDY    70  70 100 CALM      29.98S
HAGERSTOWN APT PTCLDY    73  57  57 NW6       29.97R
WESTMINSTER*   MOCLDY    72  63  73 CALM      29.97R

$$

MDZ501>502-050600-
WESTERN MARYLAND

CITY           SKY/WX    TMP DP  RH WIND       PRES   REMARKS
OAKLAND*       CLEAR     63  63 100 W3        30.09S
CUMBERLAND*    CLEAR     70  61  73 N5        30.03S

$$

VAZ025>031-050600-
SHENANDOAH VALLEY

CITY           SKY/WX    TMP DP  RH WIND       PRES   REMARKS
WINCHESTER*    CLEAR     68  66  94 SE3       29.98R
FRONT ROYAL*   FAIR      68  68 100 CALM      29.97S
LURAY*         FAIR      68  68 100 CALM      29.99S
NEW MARKET*    CLOUDY    67  63  87 CALM      29.99S
STAUNTON*      MOCLDY    77  63  61 CALM      30.03S
WAYNESBORO*    FAIR      76  62  62 W8        30.02S

$$

WVZ021-048>050-054>055-050600-
EASTERN WEST VIRGINIA PANHANDLE

CITY           SKY/WX    TMP DP  RH WIND       PRES   REMARKS
MARTINSBURG    CLEAR     67  61  81 CALM      29.97R
PETERSBURG*    MOCLDY    67  64  90 CALM      30.01S

$$

VAZ036>039-050-050600-
CENTRAL FOOTHILLS

CITY           SKY/WX    TMP DP  RH WIND       PRES   REMARKS
CHARLOTTESVILL PTCLDY    75  65  70 W5        29.97R
CULPEPER*      CLEAR     68  66  94 CALM      29.96S
ORANGE*        CLEAR     72  68  88 CALM      29.98R
GORDONSVILLE*  FAIR      72  68  88 NW5       29.95F
WARRENTON*     FAIR      67  67 100 CALM      29.95S FOG

$$

VAZ055>057-050600-
NORTH AND CENTRAL PIEDMONT

CITY           SKY/WX    TMP DP  RH WIND       PRES   REMARKS
FREDERICKSBRG* CLEAR     77  68  74 NW6       29.93S
STAFFORD*      CLEAR     70  65  85 CALM      29.99R

$$

NCZ024-NYZ072-PAZ021-071-VAZ022-071-050600-
OTHER REGIONAL OBSERVATIONS

CITY           SKY/WX    TMP DP  RH WIND       PRES   REMARKS
NEW YORK CITY  PTCLDY    76  57  51 VRB3      29.94R
PHILADELPHIA   MOCLDY    78  53  41 CALM      29.93R
PITTSBURGH     PTCLDY    67  57  70 NW3       30.01R
ROANOKE        CLOUDY    78  62  57 W12       30.03S
RICHMOND       MOCLDY    81  73  76 SW5       29.94R
RALEIGH        MOCLDY    77  72  84 CALM      30.00R

$$

ANZ530>537-050600-
MARINE OBSERVATIONS

STATION/POSITION TIME  TEMP    WIND        PRES
                       AIR SEA DIR/SP/G
                 (UTC) (F)     (DEG/KT/KT) (MB)
THOMAS PT LIGHT  NOT AVBL
BALT KEY BRIDGE  0400   78      20/  3/  4 1013.1R
COVE POINT       0400   80     320/  6/  7 1013.2R
LEWISETTA        0400   81 85  310/  8/ 10 1012.2R
SOLOMONS ISLAND  0400      84                N/A
PINEY POINT      0400          270/  5/  7   N/A

$$




USA.gov is the U.S. government's official web portal to all federal, state and local government web resources and services.